Change the Weather History Date:

Thursday, May 23, 2013

  Actual Average (LRAR) Record (LRAR)
Temperature  
Mean Temperature 56 °F -  
Max Temperature 61 °F 77 °F 87 °F (2006)
Min Temperature 52 °F 55 °F 39 °F (1998)
Degree Days  
Heating Degree Days 8    
Growing Degree Days 6 (Base 50)    
Moisture  
Dew Point 54 °F    
Average Humidity 86    
Maximum Humidity 100    
Minimum Humidity 70    
Precipitation  
Precipitation 0.00 in 0.09 in - ()
Sea Level Pressure  
Sea Level Pressure 29.59 in    
Wind  
Wind Speed 7 mph ()    
Max Wind Speed 18 mph    
Max Gust Speed 28 mph    
Visibility 6.6 miles    
Events Rain    
Averages and records for this station are not official NWS values.
T = Trace of Precipitation, MM = Missing Value Source: Averaged Metar Reports

Daily Weather History Graph

Daily Weather History Graph

Search for Another Location

Airport or City:

Trip Planner

Search our weather history database for the weather conditions in past years. The results will help you decide how hot, cold, wet, or windy it might be!

Date:

Astronomy

May. 23, 2013 Rise Set
Actual Time 4:58 AM CEST 8:15 PM CEST
Civil Twilight 4:21 AM CEST 8:51 PM CEST
Nautical Twilight 3:34 AM CEST 9:39 PM CEST
Astronomical Twilight 2:34 AM CEST 10:39 PM CEST
Moon 6:21 PM CEST (5/23) 3:37 AM CEST (5/23)
Length of Visible Light 16h 29m
Length of Day
15h 16m
Waxing Gibbous, 95% of the Moon is Illuminated
May 23
Waxing Gibbous
May 25
Full
May 31
Last Quarter
Jun 8
New
Jun 16
First Quarter

Hourly Weather History & Observations

Time (CEST) Temp. Dew Point Humidity Pressure Visibility Wind Dir Wind Speed Gust Speed Precip Events Conditions
12:45 AM 53.6 °F 53.6 °F 100% 29.71 in - North 1.2 mph - N/A   Clear
1:45 AM 53.6 °F 53.6 °F 100% 29.68 in - North 3.5 mph - N/A   Clear
2:00 AM 53 °F 53 °F 100% 29.68 in 25 mi North 4.5 mph - -   Partly Cloudy
2:45 AM 53.6 °F 53.6 °F 100% 29.65 in - North 3.5 mph - N/A   Clear
3:45 AM 53.6 °F 53.6 °F 100% 29.65 in - North 2.3 mph - N/A   Clear
4:45 AM 53.6 °F 53.6 °F 100% 29.65 in - NNW 4.6 mph - N/A   Clear
5:45 AM 53.6 °F 53.6 °F 100% 29.62 in - NNE 3.5 mph - N/A   Clear
6:15 AM 55.4 °F 55.4 °F 100% 29.62 in 6.2 mi North 3.5 mph - N/A Rain Light Rain
6:16 AM 55.4 °F 55.4 °F 100% 29.62 in 6.2 mi North 3.5 mph - N/A Rain Light Rain
6:45 AM 55.4 °F 53.6 °F 94% 29.59 in 6.2 mi NW 8.1 mph - N/A Rain Light Rain
7:15 AM 55.4 °F 53.6 °F 94% 29.59 in 6.2 mi NW 9.2 mph - N/A   Overcast
7:45 AM 55.4 °F 53.6 °F 94% 29.59 in 6.2 mi NW 11.5 mph - N/A   Overcast
8:00 AM 55 °F 54 °F 97% 29.59 in 16 mi NW 11.2 mph - - Rain Light Rain
8:15 AM 55.4 °F 53.6 °F 94% 29.59 in 6.2 mi NNW 11.5 mph - N/A   Overcast
8:45 AM 55.4 °F 55.4 °F 100% 29.59 in 6.2 mi NNW 11.5 mph - N/A Rain Light Rain
9:15 AM 55.4 °F 55.4 °F 100% 29.59 in 6.2 mi North 12.7 mph - N/A Rain Light Rain
9:45 AM 57.2 °F 55.4 °F 94% 29.59 in 6.2 mi NNW 12.7 mph - N/A   Mostly Cloudy
10:15 AM 57.2 °F 53.6 °F 88% 29.59 in 6.2 mi NNW 15.0 mph - N/A   Mostly Cloudy
10:45 AM 57.2 °F 53.6 °F 88% 29.59 in 6.2 mi NNW 16.1 mph - N/A   Mostly Cloudy
11:15 AM 57.2 °F 53.6 °F 88% 29.59 in 6.2 mi NNW 13.8 mph - N/A   Mostly Cloudy
11:45 AM 59.0 °F 53.6 °F 82% 29.56 in 6.2 mi NNW 13.8 mph - N/A   Mostly Cloudy
12:15 PM 60.8 °F 53.6 °F 77% 29.56 in 6.2 mi NNW 13.8 mph - N/A   Overcast
12:45 PM 60.8 °F 53.6 °F 77% 29.56 in 6.2 mi North 16.1 mph 27.6 mph N/A   Overcast
1:15 PM 60.8 °F 53.6 °F 77% 29.56 in 6.2 mi North 16.1 mph - N/A   Overcast
1:45 PM 60.8 °F 53.6 °F 77% 29.56 in 6.2 mi North 18.4 mph - N/A   Overcast
2:00 PM 60 °F 53 °F 70% 29.56 in 25 mi North 17.9 mph - -   Partly Cloudy
2:15 PM 60.8 °F 55.4 °F 82% 29.56 in 6.2 mi North 16.1 mph - N/A   Overcast
2:45 PM 60.8 °F 53.6 °F 77% 29.53 in 6.2 mi North 17.3 mph - N/A   Overcast
2:46 PM 60.8 °F 53.6 °F 77% 29.56 in - North 18.4 mph - N/A   Unknown
2:47 PM 60.8 °F 53.6 °F 77% 29.56 in 6.2 mi North 18.4 mph - N/A   Overcast
3:15 PM 60.8 °F 51.8 °F 72% 29.56 in 6.2 mi North 15.0 mph - N/A   Mostly Cloudy
3:45 PM 60.8 °F 53.6 °F 77% 29.53 in 6.2 mi North 13.8 mph - N/A   Mostly Cloudy
4:15 PM 60.8 °F 53.6 °F 77% 29.56 in 6.2 mi North 9.2 mph - N/A   Mostly Cloudy
4:45 PM 60.8 °F 51.8 °F 72% 29.56 in 6.2 mi North 13.8 mph - N/A Rain Light Rain Showers
5:15 PM 60.8 °F 51.8 °F 72% 29.56 in 6.2 mi North 9.2 mph - N/A Rain Light Rain Showers
5:45 PM 60.8 °F 53.6 °F 77% 29.56 in 6.2 mi North 6.9 mph - N/A   Mostly Cloudy
6:15 PM 60.8 °F 53.6 °F 77% 29.56 in 6.2 mi NNW 9.2 mph - N/A   Mostly Cloudy
6:45 PM 59.0 °F 53.6 °F 82% 29.56 in 6.2 mi NNE 4.6 mph - N/A   Mostly Cloudy
7:15 PM 59.0 °F 53.6 °F 82% 29.56 in 6.2 mi North 4.6 mph - N/A   Mostly Cloudy
7:45 PM 59.0 °F 53.6 °F 82% 29.56 in 6.2 mi Calm Calm - N/A   Mostly Cloudy
8:00 PM 60 °F 54 °F 73% 29.57 in 12 mi Calm Calm - -   Partly Cloudy
8:15 PM 59.0 °F 51.8 °F 77% 29.59 in 6.2 mi NNW 5.8 mph - N/A   Mostly Cloudy
8:45 PM 59.0 °F 53.6 °F 82% 29.59 in 6.2 mi NNW 3.5 mph - N/A   Mostly Cloudy
9:15 PM 57.2 °F 51.8 °F 82% 29.59 in 6.2 mi WNW 6.9 mph - N/A   Mostly Cloudy
9:45 PM 57.2 °F 51.8 °F 82% 29.59 in 6.2 mi NW 8.1 mph - N/A   Overcast
10:45 PM 55.4 °F 51.8 °F 88% 29.62 in 6.2 mi NW 5.8 mph - N/A   Overcast
11:45 PM 53.6 °F 51.8 °F 94% 29.62 in 6.2 mi NNW 4.6 mph - N/A   Overcast